,,Stat6,,Stat2,,Stat8,,Stat9,,Stat10,,Wind1,,Wind1,
time,status,PA1M_AVG,status,PR1M_SUM,status,RH1M_AVG,status,SR1M_AVG,status,TA1M_AVG,status,W1dAve1m,status,W1sAve1m,
2005-01-21, 00:00:00,VALID,921.226,VALID,0,VALID,91.6369,VALID,0,VALID,19.9668,VALID,90,VALID,0.925426,
2005-01-21, 00:01:00,VALID,921.258,VALID,0,VALID,91.5886,VALID,0,VALID,19.9765,VALID,111,VALID,1.16953,
2005-01-21, 00:02:00,VALID,921.282,VALID,0,VALID,91.3889,VALID,0,VALID,19.9889,VALID,118,VALID,1.15851,
2005-01-21, 00:03:00,VALID,921.305,VALID,0,VALID,91.1321,VALID,0.0339617,VALID,20.0048,VALID,131,VALID,1.3869,
2005-01-21, 00:04:00,VALID,921.325,VALID,0,VALID,90.6044,VALID,0,VALID,20.0699,VALID,126,VALID,1.48037,
2005-01-21, 00:05:00,VALID,921.364,VALID,0,VALID,90.345,VALID,-0.0849042,VALID,20.1234,VALID,129,VALID,1.54967,
2005-01-21, 00:06:00,VALID,921.375,VALID,0,VALID,90.0754,VALID,-0.0849042,VALID,20.181,VALID,135,VALID,1.25896,
2005-01-21, 00:07:00,VALID,921.398,VALID,0,VALID,89.8643,VALID,-0.0849042,VALID,20.2526,VALID,134,VALID,1.41679,
2005-01-21, 00:08:00,VALID,921.386,VALID,0,VALID,89.5019,VALID,-0.0849042,VALID,20.2906,VALID,120,VALID,1.41313,
2005-01-21, 00:09:00,VALID,921.385,VALID,0,VALID,89.2374,VALID,-0.0849042,VALID,20.3398,VALID,123,VALID,1.07741,
2005-01-21, 00:10:00,VALID,921.379,VALID,0,VALID,89.1026,VALID,-0.0679233,VALID,20.3649,VALID,135,VALID,0.916016,
2005-01-21, 00:11:00,VALID,921.383,VALID,0,VALID,88.9042,VALID,-0.0679233,VALID,20.3907,VALID,128,VALID,0.991168,
2005-01-21, 00:12:00,VALID,921.357,VALID,0,VALID,88.6474,VALID,-0.0849042,VALID,20.4133,VALID,126,VALID,0.604651,
2005-01-21, 00:13:00,VALID,921.356,VALID,0,VALID,88.538,VALID,-0.0849042,VALID,20.4653,VALID,126,VALID,0.881771,
2005-01-21, 00:14:00,VALID,921.339,VALID,0,VALID,88.4948,VALID,-0.0679233,VALID,20.4747,VALID,148,VALID,0.859738,
2005-01-21, 00:15:00,VALID,921.331,VALID,0,VALID,88.3981,VALID,-0.0849042,VALID,20.4879,VALID,138,VALID,0.853051,
2005-01-21, 00:16:00,VALID,921.333,VALID,0,VALID,88.4159,VALID,-0.0849042,VALID,20.5242,VALID,149,VALID,0.887718,
2005-01-21, 00:17:00,VALID,921.339,VALID,0,VALID,88.3473,VALID,-0.0849042,VALID,20.5232,VALID,151,VALID,0.372275,
2005-01-21, 00:18:00,VALID,921.336,VALID,0,VALID,88.4579,VALID,-0.118866,VALID,20.5073,VALID,151,VALID,0.343056,
2005-01-21, 00:19:00,VALID,921.335,VALID,0,VALID,88.6016,VALID,-0.101885,VALID,20.4747,VALID,151,VALID,0.607329,
2005-01-21, 00:20:00,VALID,921.348,VALID,0,VALID,88.716,VALID,0.0339617,VALID,20.4605,VALID,152,VALID,0.678052,
2005-01-21, 00:21:00,VALID,921.347,VALID,0,VALID,88.8699,VALID,0,VALID,20.4312,VALID,147,VALID,0.537972,
2005-01-21, 00:22:00,VALID,921.338,VALID,0,VALID,89.0441,VALID,0,VALID,20.3927,VALID,129,VALID,0.576349,
2005-01-21, 00:23:00,VALID,921.336,VALID,0,VALID,89.3544,VALID,0.0169808,VALID,20.3412,VALID,127,VALID,0.590625,
2005-01-21, 00:24:00,VALID,921.325,VALID,0,VALID,89.6214,VALID,0,VALID,20.289,VALID,125,VALID,0.640244,
2005-01-21, 00:25:00,VALID,921.317,VALID,0,VALID,89.7142,VALID,0.0509425,VALID,20.26,VALID,122,VALID,0.66543,
2005-01-21, 00:26:00,VALID,921.292,VALID,0,VALID,89.9202,VALID,0,VALID,20.2374,VALID,117,VALID,0.514717,
2005-01-21, 00:27:00,VALID,921.256,VALID,0,VALID,90.0321,VALID,0.0339617,VALID,20.2314,VALID,117,VALID,0.356585,
2005-01-21, 00:28:00,VALID,921.218,VALID,0,VALID,90.0499,VALID,0.0169808,VALID,20.2115,VALID,129,VALID,0.521391,
2005-01-21, 00:29:00,VALID,921.201,VALID,0,VALID,90.1669,VALID,0,VALID,20.2115,VALID,148,VALID,0.590588,
2005-01-21, 00:30:00,VALID,921.193,VALID,0,VALID,90.036,VALID,0.0339617,VALID,20.2217,VALID,143,VALID,0.399219,
2005-01-21, 00:31:00,VALID,921.176,VALID,0,VALID,90.1542,VALID,0,VALID,20.1825,VALID,107,VALID,0.625545,
2005-01-21, 00:32:00,VALID,921.196,VALID,0,VALID,90.7557,VALID,0.0169808,VALID,20.1213,VALID,95,VALID,0.831745,
2005-01-21, 00:33:00,VALID,921.196,VALID,0,VALID,91.1054,VALID,0,VALID,20.0893,VALID,106,VALID,0.921705,
2005-01-21, 00:34:00,VALID,921.189,VALID,0,VALID,91.2109,VALID,0,VALID,20.0828,VALID,106,VALID,0.920573,
2005-01-21, 00:35:00,VALID,921.194,VALID,0,VALID,91.4474,VALID,-0.0679233,VALID,20.0508,VALID,106,VALID,0.948219,
2005-01-21, 00:36:00,VALID,921.178,VALID,0,VALID,91.6687,VALID,-0.0169808,VALID,20.0153,VALID,109,VALID,0.751116,
2005-01-21, 00:37:00,VALID,921.181,VALID,0,VALID,91.7971,VALID,-0.0339617,VALID,19.9894,VALID,100,VALID,0.815625,
2005-01-21, 00:38:00,VALID,921.166,VALID,0,VALID,91.951,VALID,-0.0339617,VALID,19.9442,VALID,94,VALID,0.979102,
2005-01-21, 00:39:00,VALID,921.136,VALID,0,VALID,92.3134,VALID,-0.0339617,VALID,19.9216,VALID,114,VALID,1.04653,
2005-01-21, 00:40:00,VALID,921.119,VALID,0,VALID,92.2867,VALID,0,VALID,19.9343,VALID,125,VALID,1.16726,
2005-01-21, 00:41:00,VALID,921.113,VALID,0,VALID,92.1812,VALID,0,VALID,19.9497,VALID,125,VALID,1.0638,
2005-01-21, 00:42:00,VALID,921.137,VALID,0,VALID,92.1328,VALID,-0.0169808,VALID,19.9628,VALID,118,VALID,1.10103,
2005-01-21, 00:43:00,VALID,921.158,VALID,0,VALID,92.1443,VALID,0,VALID,19.9698,VALID,99,VALID,1.14081,
2005-01-21, 00:44:00,VALID,921.173,VALID,0,VALID,92.1901,VALID,0,VALID,19.9633,VALID,122,VALID,0.913154,
2005-01-21, 00:45:00,VALID,921.19,VALID,0,VALID,92.1252,VALID,0,VALID,19.9397,VALID,129,VALID,0.737165,
2005-01-21, 00:46:00,VALID,921.234,VALID,0,VALID,92.2765,VALID,-0.0169808,VALID,19.9345,VALID,129,VALID,0.644792,
2005-01-21, 00:47:00,VALID,921.254,VALID,0,VALID,92.5092,VALID,-0.0169808,VALID,19.8858,VALID,141,VALID,1.06827,
2005-01-21, 00:48:00,VALID,921.27,VALID,0,VALID,92.6555,VALID,-0.0169808,VALID,19.8635,VALID,155,VALID,0.657552,
2005-01-21, 00:49:00,VALID,921.276,VALID,0,VALID,92.7063,VALID,-0.0169808,VALID,19.8309,VALID,159,VALID,0.819097,
2005-01-21, 00:50:00,VALID,921.277,VALID,0,VALID,92.9975,VALID,0,VALID,19.7984,VALID,156,VALID,0.919643,
2005-01-21, 00:51:00,VALID,921.269,VALID,0,VALID,92.8933,VALID,0,VALID,19.7857,VALID,129,VALID,0.800595,
2005-01-21, 00:52:00,VALID,921.232,VALID,0,VALID,93.1692,VALID,0,VALID,19.7467,VALID,154,VALID,1.24638,
2005-01-21, 00:53:00,VALID,921.185,VALID,0,VALID,93.2951,VALID,-0.0339617,VALID,19.7213,VALID,127,VALID,0.732813,
2005-01-21, 00:54:00,VALID,921.193,VALID,0,VALID,93.0141,VALID,-0.0339617,VALID,19.6761,VALID,54,VALID,1.20694,
2005-01-21, 00:55:00,VALID,921.15,VALID,0,VALID,93.3154,VALID,-0.0169808,VALID,19.5758,VALID,82,VALID,0.875545,
2005-01-21, 00:56:00,VALID,921.118,VALID,0,VALID,94.3543,VALID,-0.0169808,VALID,19.5077,VALID,127,VALID,0.992578,
2005-01-21, 00:57:00,VALID,921.089,VALID,0,VALID,94.4497,VALID,-0.0339617,VALID,19.4754,VALID,133,VALID,0.548549,
2005-01-21, 00:58:00,VALID,921.069,VALID,0,VALID,94.409,VALID,-0.0339617,VALID,19.4466,VALID,154,VALID,0.814986,
2005-01-21, 00:59:00,VALID,921.077,VALID,0,VALID,94.7981,VALID,-0.0509425,VALID,19.4148,VALID,158,VALID,0.805596,
2005-01-21, 01:00:00,VALID,921.101,VALID,0,VALID,95.1033,VALID,-0.0169808,VALID,19.4019,VALID,138,VALID,0.867746,
2005-01-21, 01:01:00,VALID,921.124,VALID,0,VALID,95.1974,VALID,-0.0509425,VALID,19.3984,VALID,152,VALID,0.708984,
2005-01-21, 01:02:00,VALID,921.149,VALID,0,VALID,95.2495,VALID,-0.0339617,VALID,19.4053,VALID,149,VALID,0.802202,
2005-01-21, 01:03:00,VALID,921.164,VALID,0,VALID,95.1402,VALID,0,VALID,19.4081,VALID,155,VALID,0.748047,
2005-01-21, 01:04:00,VALID,921.182,VALID,0,VALID,95.2127,VALID,-0.0339617,VALID,19.4113,VALID,165,VALID,1.01493,
2005-01-21, 01:05:00,VALID,921.188,VALID,0,VALID,95.1313,VALID,0.0169808,VALID,19.4136,VALID,166,VALID,0.827567,
2005-01-21, 01:06:00,VALID,921.177,VALID,0,VALID,95.1643,VALID,0.0679233,VALID,19.4233,VALID,156,VALID,0.887058,
2005-01-21, 01:07:00,VALID,921.152,VALID,0,VALID,95.0207,VALID,0.0509425,VALID,19.4228,VALID,141,VALID,0.871761,
2005-01-21, 01:08:00,VALID,921.114,VALID,0,VALID,94.882,VALID,0.0849042,VALID,19.4424,VALID,149,VALID,1.22711,
2005-01-21, 01:09:00,VALID,921.1,VALID,0,VALID,94.7244,VALID,0.0849042,VALID,19.4682,VALID,140,VALID,1.2526,
2005-01-21, 01:10:00,VALID,921.058,VALID,0,VALID,94.4192,VALID,0.0849042,VALID,19.5037,VALID,139,VALID,0.995561,
2005-01-21, 01:11:00,VALID,921.039,VALID,0,VALID,94.2284,VALID,0.0679233,VALID,19.536,VALID,135,VALID,1.02717,
2005-01-21, 01:12:00,VALID,921.044,VALID,0,VALID,94.0771,VALID,0.0849042,VALID,19.5581,VALID,133,VALID,0.858232,
2005-01-21, 01:13:00,VALID,921.064,VALID,0,VALID,94.0263,VALID,0.0679233,VALID,19.5912,VALID,135,VALID,0.784334,
2005-01-21, 01:14:00,VALID,921.066,VALID,0,VALID,93.8737,VALID,0.0339617,VALID,19.624,VALID,136,VALID,0.942951,
2005-01-21, 01:15:00,VALID,921.063,VALID,0,VALID,93.6728,VALID,0.0509425,VALID,19.6555,VALID,152,VALID,0.614583,
2005-01-21, 01:16:00,VALID,921.036,VALID,0,VALID,93.468,VALID,0.0339617,VALID,19.6848,VALID,153,VALID,0.580793,
2005-01-21, 01:17:00,VALID,921.016,VALID,0,VALID,93.2811,VALID,0.0679233,VALID,19.6873,VALID,166,VALID,0.580031,
2005-01-21, 01:18:00,VALID,920.995,VALID,0,VALID,93.2646,VALID,0.0849042,VALID,19.7035,VALID,145,VALID,0.539595,
2005-01-21, 01:19:00,VALID,920.958,VALID,0,VALID,93.1768,VALID,0.0169808,VALID,19.6915,VALID,162,VALID,1.0217,
2005-01-21, 01:20:00,VALID,920.923,VALID,0,VALID,93.7236,VALID,-0.118866,VALID,19.6808,VALID,142,VALID,1.2037,
2005-01-21, 01:21:00,VALID,920.894,VALID,0,VALID,93.6041,VALID,-0.101885,VALID,19.7002,VALID,131,VALID,1.36992,
2005-01-21, 01:22:00,VALID,920.87,VALID,0,VALID,93.6092,VALID,-0.118866,VALID,19.7231,VALID,137,VALID,1.18835,
2005-01-21, 01:23:00,VALID,920.828,VALID,0,VALID,93.557,VALID,-0.118866,VALID,19.7196,VALID,138,VALID,1.07778,
2005-01-21, 01:24:00,VALID,920.804,VALID,0,VALID,93.8114,VALID,-0.0849042,VALID,19.7171,VALID,145,VALID,1.2154,
2005-01-21, 01:25:00,VALID,920.817,VALID,0,VALID,93.4757,VALID,-0.101885,VALID,19.704,VALID,130,VALID,0.911932,
2005-01-21, 01:26:00,VALID,920.841,VALID,0,VALID,93.5901,VALID,-0.118866,VALID,19.6781,VALID,155,VALID,0.578869,
2005-01-21, 01:27:00,VALID,920.847,VALID,0,VALID,93.8355,VALID,-0.101885,VALID,19.6553,VALID,146,VALID,0.558594,
2005-01-21, 01:28:00,VALID,920.867,VALID,0,VALID,94.2284,VALID,-0.101885,VALID,19.6389,VALID,137,VALID,0.755394,
2005-01-21, 01:29:00,VALID,920.886,VALID,0,VALID,94.161,VALID,-0.0849042,VALID,19.6324,VALID,138,VALID,0.491257,
2005-01-21, 01:30:00,VALID,920.893,VALID,0,VALID,94.2997,VALID,-0.118866,VALID,19.61,VALID,140,VALID,0.64117,
2005-01-21, 01:31:00,VALID,920.902,VALID,0,VALID,94.4599,VALID,-0.101885,VALID,19.6036,VALID,145,VALID,0.893601,
2005-01-21, 01:32:00,VALID,920.885,VALID,0,VALID,94.4713,VALID,-0.101885,VALID,19.5907,VALID,149,VALID,0.944741,
2005-01-21, 01:33:00,VALID,920.869,VALID,0,VALID,94.6443,VALID,-0.101885,VALID,19.5611,VALID,151,VALID,0.966751,
2005-01-21, 01:34:00,VALID,920.859,VALID,0,VALID,94.9634,VALID,-0.101885,VALID,19.571,VALID,153,VALID,1.26402,
2005-01-21, 01:35:00,VALID,920.846,VALID,0,VALID,94.9825,VALID,-0.0169808,VALID,19.5862,VALID,150,VALID,0.996271,
2005-01-21, 01:36:01,VALID,920.846,VALID,0,VALID,94.8452,VALID,0,VALID,19.5889,VALID,145,VALID,0.820313,
2005-01-21, 01:37:00,VALID,920.837,VALID,0,VALID,94.7231,VALID,0,VALID,19.5956,VALID,141,VALID,0.601749,
2005-01-21, 01:38:00,VALID,920.812,VALID,0,VALID,94.7587,VALID,0.0169808,VALID,19.5792,VALID,138,VALID,0.587798,
2005-01-21, 01:39:01,VALID,920.807,VALID,0,VALID,94.7282,VALID,0.0169808,VALID,19.5728,VALID,138,VALID,0.343387,
2005-01-21, 01:40:00,VALID,920.781,VALID,0,VALID,94.5997,VALID,0,VALID,19.5467,VALID,138,VALID,0.654883,
2005-01-21, 01:41:00,VALID,920.781,VALID,0,VALID,94.6913,VALID,0,VALID,19.5474,VALID,140,VALID,1.17891,
2005-01-21, 01:42:00,VALID,920.777,VALID,0,VALID,94.4535,VALID,0,VALID,19.5537,VALID,119,VALID,1.15015,
2005-01-21, 01:43:00,VALID,920.765,VALID,0,VALID,94.367,VALID,0.0339617,VALID,19.5407,VALID,137,VALID,0.812881,
2005-01-21, 01:44:00,VALID,920.744,VALID,0,VALID,94.5921,VALID,0.0169808,VALID,19.5308,VALID,158,VALID,1.18524,
2005-01-21, 01:45:00,VALID,920.712,VALID,0,VALID,94.6506,VALID,0,VALID,19.5502,VALID,150,VALID,1.23278,
2005-01-21, 01:46:00,VALID,920.685,VALID,0,VALID,94.4917,VALID,0.0169808,VALID,19.5795,VALID,139,VALID,0.887649,
2005-01-21, 01:47:00,VALID,920.648,VALID,0,VALID,94.3607,VALID,-0.0169808,VALID,19.5959,VALID,141,VALID,0.760356,
2005-01-21, 01:48:00,VALID,920.618,VALID,0,VALID,94.2933,VALID,0,VALID,19.5922,VALID,141,VALID,0.957031,
2005-01-21, 01:49:01,VALID,920.59,VALID,0,VALID,94.2412,VALID,0,VALID,19.6115,VALID,136,VALID,1.07594,
2005-01-21, 01:50:00,VALID,920.586,VALID,0,VALID,93.95,VALID,0,VALID,19.6441,VALID,110,VALID,0.848292,
2005-01-21, 01:51:00,VALID,920.571,VALID,0,VALID,94.0339,VALID,0,VALID,19.6473,VALID,125,VALID,1.0992,
2005-01-21, 01:52:00,VALID,920.569,VALID,0,VALID,93.9194,VALID,-0.0169808,VALID,19.6669,VALID,141,VALID,1.01817,
2005-01-21, 01:53:00,VALID,920.583,VALID,0,VALID,93.3091,VALID,-0.0169808,VALID,19.6699,VALID,93,VALID,0.404297,
2005-01-21, 01:54:00,VALID,920.605,VALID,0,VALID,93.2607,VALID,-0.0169808,VALID,19.6411,VALID,65,VALID,0.677827,
2005-01-21, 01:55:01,VALID,920.62,VALID,0,VALID,93.6575,VALID,0,VALID,19.6215,VALID,127,VALID,0.618712,
2005-01-21, 01:56:00,VALID,920.636,VALID,0,VALID,93.7287,VALID,-0.0169808,VALID,19.6222,VALID,154,VALID,0.555804,
2005-01-21, 01:57:00,VALID,920.665,VALID,0,VALID,93.4083,VALID,0,VALID,19.6158,VALID,154,VALID,0.0025436,
2005-01-21, 01:58:00,VALID,920.673,VALID,0,VALID,93.6155,VALID,0,VALID,19.5961,VALID,154,VALID,0.0828488,
2005-01-21, 01:59:00,VALID,920.683,VALID,0,VALID,93.9245,VALID,-0.0169808,VALID,19.5927,VALID,160,VALID,0.427778,
2005-01-21, 02:00:00,VALID,920.706,VALID,0,VALID,93.6143,VALID,-0.0339617,VALID,19.583,VALID,160,VALID,0.476753,
2005-01-21, 02:01:01,VALID,920.718,VALID,0,VALID,94.058,VALID,0,VALID,19.5633,VALID,166,VALID,1.04185,
2005-01-21, 02:02:01,VALID,920.722,VALID,0,VALID,94.8286,VALID,0,VALID,19.5763,VALID,165,VALID,0.778232,
2005-01-21, 02:03:00,VALID,920.726,VALID,0,VALID,94.8159,VALID,-0.0169808,VALID,19.6056,VALID,164,VALID,0.644531,
2005-01-21, 02:04:01,VALID,920.726,VALID,0,VALID,94.5184,VALID,-0.0169808,VALID,19.6185,VALID,151,VALID,0.453497,
2005-01-21, 02:05:00,VALID,920.71,VALID,0,VALID,94.0402,VALID,-0.0509425,VALID,19.5991,VALID,94,VALID,0.874637,
2005-01-21, 02:06:00,VALID,920.679,VALID,0,VALID,94.5273,VALID,0,VALID,19.5248,VALID,113,VALID,0.800595,
2005-01-21, 02:07:00,VALID,920.637,VALID,0,VALID,94.8197,VALID,-0.0169808,VALID,19.5027,VALID,105,VALID,0.817014,
2005-01-21, 02:08:01,VALID,920.578,VALID,0,VALID,95.1542,VALID,-0.0169808,VALID,19.5052,VALID,115,VALID,0.873355,
2005-01-21, 02:09:00,VALID,920.533,VALID,0,VALID,94.8363,VALID,-0.0169808,VALID,19.5281,VALID,123,VALID,0.863372,
2005-01-21, 02:10:00,VALID,920.476,VALID,0,VALID,94.821,VALID,-0.0339617,VALID,19.5474,VALID,117,VALID,1.02148,
2005-01-21, 02:11:00,VALID,920.434,VALID,0,VALID,94.6328,VALID,-0.0339617,VALID,19.5472,VALID,114,VALID,0.795967,
2005-01-21, 02:12:01,VALID,920.416,VALID,0,VALID,94.9342,VALID,0.0169808,VALID,19.534,VALID,100,VALID,1.12518,
2005-01-21, 02:13:00,VALID,920.412,VALID,0,VALID,94.7422,VALID,0,VALID,19.5474,VALID,115,VALID,1.4737,
2005-01-21, 02:14:01,VALID,920.417,VALID,0,VALID,94.1254,VALID,0.0169808,VALID,19.5795,VALID,112,VALID,1.26772,
2005-01-21, 02:15:00,VALID,920.434,VALID,0,VALID,94.0263,VALID,0,VALID,19.6153,VALID,123,VALID,1.35975,
2005-01-21, 02:16:00,VALID,920.447,VALID,0,VALID,93.7732,VALID,0,VALID,19.6505,VALID,125,VALID,1.16883,
2005-01-21, 02:17:00,VALID,920.471,VALID,0,VALID,93.7338,VALID,-0.0169808,VALID,19.699,VALID,130,VALID,1.29119,
2005-01-21, 02:18:01,VALID,920.491,VALID,0,VALID,93.5888,VALID,0,VALID,19.77,VALID,129,VALID,1.64662,
2005-01-21, 02:19:01,VALID,920.487,VALID,0,VALID,93.2353,VALID,-0.0169808,VALID,19.8443,VALID,127,VALID,1.31499,
2005-01-21, 02:20:00,VALID,920.481,VALID,0,VALID,93.1094,VALID,-0.101885,VALID,19.8973,VALID,140,VALID,1.04516,
2005-01-21, 02:21:00,VALID,920.448,VALID,0,VALID,93.2455,VALID,-0.101885,VALID,19.9169,VALID,141,VALID,1.21894,
2005-01-21, 02:22:00,VALID,920.405,VALID,0,VALID,93.3256,VALID,-0.101885,VALID,19.9328,VALID,144,VALID,1.21913,
2005-01-21, 02:23:01,VALID,920.359,VALID,0,VALID,93.393,VALID,-0.0849042,VALID,19.9589,VALID,141,VALID,1.23495,
2005-01-21, 02:24:00,VALID,920.303,VALID,0,VALID,93.3943,VALID,-0.0509425,VALID,19.9455,VALID,124,VALID,1.15694,
2005-01-21, 02:25:01,VALID,920.233,VALID,0,VALID,93.7262,VALID,-0.0849042,VALID,19.9328,VALID,128,VALID,1.09013,
2005-01-21, 02:26:00,VALID,920.189,VALID,0,VALID,93.5939,VALID,-0.0509425,VALID,19.9005,VALID,80,VALID,0.932736,
2005-01-21, 02:27:00,VALID,920.159,VALID,0,VALID,93.9728,VALID,-0.0509425,VALID,19.8319,VALID,99,VALID,1.2074,
2005-01-21, 02:28:00,VALID,920.149,VALID,0,VALID,94.3429,VALID,-0.0679233,VALID,19.8063,VALID,108,VALID,1.3334,
2005-01-21, 02:29:00,VALID,920.134,VALID,0,VALID,94.3696,VALID,-0.0849042,VALID,19.7748,VALID,117,VALID,1.10011,
2005-01-21, 02:30:00,VALID,920.146,VALID,0,VALID,94.7244,VALID,-0.101885,VALID,19.742,VALID,132,VALID,1.12155,
2005-01-21, 02:31:00,VALID,920.156,VALID,0,VALID,94.568,VALID,-0.101885,VALID,19.7653,VALID,112,VALID,1.11166,
2005-01-21, 02:32:00,VALID,920.175,VALID,0,VALID,94.5667,VALID,-0.0849042,VALID,19.7517,VALID,128,VALID,0.642578,
2005-01-21, 02:33:00,VALID,920.176,VALID,0,VALID,94.1026,VALID,-0.101885,VALID,19.7164,VALID,91,VALID,0.605378,
2005-01-21, 02:34:00,VALID,920.182,VALID,0,VALID,94.5489,VALID,-0.0679233,VALID,19.6423,VALID,83,VALID,1.27938,
2005-01-21, 02:35:00,VALID,920.188,VALID,0,VALID,94.9367,VALID,0,VALID,19.6893,VALID,68,VALID,1.39824,
2005-01-21, 02:36:00,VALID,920.187,VALID,0,VALID,94.1356,VALID,0,VALID,19.8376,VALID,96,VALID,1.70508,
2005-01-21, 02:37:00,VALID,920.184,VALID,0,VALID,93.4782,VALID,0,VALID,19.9477,VALID,115,VALID,1.00888,
2005-01-21, 02:38:00,VALID,920.171,VALID,0,VALID,93.2506,VALID,0.0169808,VALID,19.9825,VALID,95,VALID,1.11947,
2005-01-21, 02:39:00,VALID,920.155,VALID,0,VALID,93.3612,VALID,0,VALID,19.9864,VALID,110,VALID,0.755269,
2005-01-21, 02:40:00,VALID,920.155,VALID,0,VALID,93.7401,VALID,0,VALID,19.9574,VALID,126,VALID,1.1582,
2005-01-21, 02:41:00,VALID,920.13,VALID,0,VALID,94.1699,VALID,0,VALID,19.899,VALID,131,VALID,0.914063,
2005-01-21, 02:42:00,VALID,920.115,VALID,0,VALID,94.3963,VALID,0,VALID,19.857,VALID,160,VALID,0.479403,
2005-01-21, 02:43:01,VALID,920.106,VALID,0,VALID,94.5311,VALID,0,VALID,19.818,VALID,121,VALID,1.41741,
2005-01-21, 02:44:00,VALID,920.071,VALID,0,VALID,94.0733,VALID,0,VALID,19.8637,VALID,77,VALID,1.40796,
2005-01-21, 02:45:00,VALID,920.056,VALID,0,VALID,93.9118,VALID,-0.0169808,VALID,19.8697,VALID,112,VALID,0.69351,
2005-01-21, 02:46:00,VALID,920.021,VALID,0,VALID,94.058,VALID,0,VALID,19.8664,VALID,119,VALID,1.0318,
2005-01-21, 02:47:00,VALID,920.003,VALID,0,VALID,94.2501,VALID,0,VALID,19.8312,VALID,115,VALID,1.21456,
2005-01-21, 02:48:01,VALID,919.968,VALID,0,VALID,94.4179,VALID,0.0169808,VALID,19.773,VALID,88,VALID,1.24182,
2005-01-21, 02:49:01,VALID,919.94,VALID,0,VALID,94.6849,VALID,0,VALID,19.7442,VALID,122,VALID,1.33457,
2005-01-21, 02:50:01,VALID,919.936,VALID,0,VALID,94.8452,VALID,-0.0849042,VALID,19.7094,VALID,125,VALID,1.19168,
2005-01-21, 02:51:00,VALID,919.94,VALID,0,VALID,94.9126,VALID,-0.0849042,VALID,19.7027,VALID,137,VALID,1.5908,
2005-01-21, 02:52:01,VALID,919.947,VALID,0,VALID,94.9253,VALID,-0.101885,VALID,19.7427,VALID,125,VALID,1.68262,
2005-01-21, 02:53:01,VALID,919.973,VALID,0,VALID,94.7536,VALID,-0.118866,VALID,19.7782,VALID,131,VALID,1.49102,
2005-01-21, 02:54:01,VALID,919.956,VALID,0,VALID,94.7307,VALID,-0.101885,VALID,19.8071,VALID,130,VALID,1.59448,
2005-01-21, 02:55:01,VALID,919.936,VALID,0,VALID,94.6582,VALID,-0.101885,VALID,19.8294,VALID,141,VALID,1.4048,
2005-01-21, 02:56:01,VALID,919.899,VALID,0,VALID,94.4599,VALID,-0.101885,VALID,19.8652,VALID,138,VALID,1.72142,
2005-01-21, 02:57:01,VALID,919.873,VALID,0,VALID,94.0491,VALID,-0.118866,VALID,19.9166,VALID,133,VALID,1.36403,
2005-01-21, 02:58:01,VALID,919.866,VALID,0,VALID,93.833,VALID,-0.101885,VALID,19.9624,VALID,137,VALID,1.27641,
2005-01-21, 02:59:00,VALID,919.842,VALID,0,VALID,94.0695,VALID,-0.118866,VALID,19.9425,VALID,143,VALID,1.49148,
2005-01-21, 03:00:00,VALID,919.818,VALID,0,VALID,94.1115,VALID,-0.101885,VALID,19.9392,VALID,125,VALID,0.808866,
2005-01-21, 03:01:00,VALID,919.811,VALID,0,VALID,94.0847,VALID,-0.118866,VALID,19.9263,VALID,104,VALID,0.872582,
2005-01-21, 03:02:00,VALID,919.822,VALID,0,VALID,94.1827,VALID,-0.101885,VALID,19.9325,VALID,156,VALID,1.65288,
2005-01-21, 03:03:00,VALID,919.84,VALID,0,VALID,93.9347,VALID,-0.101885,VALID,19.9783,VALID,153,VALID,1.63377,
2005-01-21, 03:04:00,VALID,919.895,VALID,0,VALID,93.468,VALID,-0.118866,VALID,20.0361,VALID,147,VALID,1.28181,
2005-01-21, 03:05:00,VALID,919.955,VALID,0,VALID,93.2506,VALID,0,VALID,20.0794,VALID,171,VALID,1.0599,
2005-01-21, 03:06:00,VALID,920.01,VALID,0,VALID,93.0573,VALID,0,VALID,20.1412,VALID,158,VALID,1.06517,
2005-01-21, 03:07:01,VALID,920.033,VALID,0,VALID,92.8246,VALID,0,VALID,20.1571,VALID,165,VALID,1.42624,
2005-01-21, 03:08:00,VALID,920.042,VALID,0,VALID,92.6631,VALID,-0.0169808,VALID,20.1668,VALID,176,VALID,1.21439,
2005-01-21, 03:09:00,VALID,920.057,VALID,0,VALID,92.6669,VALID,0,VALID,20.1541,VALID,166,VALID,0.996838,
2005-01-21, 03:10:01,VALID,920.042,VALID,0,VALID,92.8958,VALID,0,VALID,20.0987,VALID,163,VALID,1.4565,
2005-01-21, 03:11:00,VALID,920.031,VALID,0,VALID,93.2862,VALID,0,VALID,20.0344,VALID,165,VALID,1.09301,
2005-01-21, 03:12:01,VALID,919.993,VALID,0,VALID,93.4426,VALID,0,VALID,19.9994,VALID,153,VALID,1.09648,
2005-01-21, 03:13:01,VALID,919.974,VALID,0,VALID,93.5329,VALID,0,VALID,19.9472,VALID,136,VALID,1.41043,
2005-01-21, 03:14:00,VALID,919.95,VALID,0,VALID,93.8635,VALID,0,VALID,19.8992,VALID,147,VALID,1.15856,
2005-01-21, 03:15:00,VALID,919.933,VALID,0,VALID,94.0186,VALID,0,VALID,19.8433,VALID,135,VALID,0.840892,
2005-01-21, 03:16:01,VALID,919.927,VALID,0,VALID,94.2234,VALID,0.0169808,VALID,19.8374,VALID,140,VALID,1.0556,
2005-01-21, 03:17:00,VALID,919.914,VALID,0,VALID,94.0809,VALID,0.0169808,VALID,19.857,VALID,129,VALID,1.10102,
2005-01-21, 03:18:01,VALID,919.918,VALID,0,VALID,94.0669,VALID,0,VALID,19.8505,VALID,135,VALID,1.19459,
2005-01-21, 03:19:01,VALID,919.935,VALID,0,VALID,93.8953,VALID,0,VALID,19.8538,VALID,131,VALID,1.36355,
2005-01-21, 03:20:00,VALID,919.923,VALID,0,VALID,93.023,VALID,-0.0509425,VALID,19.8672,VALID,140,VALID,1.363,
2005-01-21, 03:21:01,VALID,919.922,VALID,0,VALID,92.1773,VALID,-0.0339617,VALID,19.9897,VALID,135,VALID,1.46457,
2005-01-21, 03:22:00,VALID,919.936,VALID,0,VALID,91.8073,VALID,-0.0169808,VALID,20.096,VALID,125,VALID,1.03666,
2005-01-21, 03:23:01,VALID,919.961,VALID,0,VALID,91.6967,VALID,0,VALID,20.1286,VALID,149,VALID,1.69295,
2005-01-21, 03:24:00,VALID,919.983,VALID,0,VALID,91.3775,VALID,-0.0169808,VALID,20.1609,VALID,130,VALID,1.5109,
2005-01-21, 03:25:01,VALID,919.997,VALID,0,VALID,91.8022,VALID,-0.0169808,VALID,20.1671,VALID,152,VALID,1.39993,
2005-01-21, 03:26:01,VALID,920.021,VALID,0,VALID,92.1087,VALID,0,VALID,20.1286,VALID,148,VALID,0.955078,
2005-01-21, 03:27:01,VALID,920.054,VALID,0,VALID,92.1621,VALID,-0.0339617,VALID,20.0863,VALID,140,VALID,1.32031,
2005-01-21, 03:28:00,VALID,920.078,VALID,0,VALID,92.0731,VALID,-0.0509425,VALID,20.0505,VALID,140,VALID,1.2555,
2005-01-21, 03:29:00,VALID,920.106,VALID,0,VALID,92.1328,VALID,-0.0169808,VALID,20.051,VALID,146,VALID,1.36319,
2005-01-21, 03:30:00,VALID,920.125,VALID,0,VALID,92.1201,VALID,-0.0339617,VALID,20.0508,VALID,124,VALID,0.708079,
2005-01-21, 03:31:01,VALID,920.132,VALID,0,VALID,92.1201,VALID,-0.0679233,VALID,20.0314,VALID,143,VALID,1.05357,
2005-01-21, 03:32:00,VALID,920.113,VALID,0,VALID,92.3312,VALID,-0.0849042,VALID,20.016,VALID,149,VALID,1.10156,
2005-01-21, 03:33:01,VALID,920.104,VALID,0,VALID,92.5334,VALID,-0.0509425,VALID,19.9971,VALID,137,VALID,1.05327,